Las Vegas, NM

4:22 AM MDT on May 27, 2018 (GMT -0600)
Las Vegas Municipal

Weather History for KLVS - January, 2013

Change the Weather History Date:

Thursday, January 24, 2013

  Actual Average Record
Temperature  
Mean Temperature 50 °F -  
Max Temperature 62 °F 47 °F 67 °F (1970)
Min Temperature 37 °F 19 °F 1 °F (1963)
Degree Days  
Heating Degree Days 16    
Moisture  
Dew Point 5 °F    
Average Humidity 20    
Maximum Humidity 49    
Minimum Humidity 7    
Precipitation  
Precipitation 0.00 in - - ()
Sea Level Pressure  
Sea Level Pressure 30.01 in    
Wind  
Wind Speed 8 mph (NW)    
Max Wind Speed 20 mph    
Max Gust Speed 25 mph    
Visibility 10 miles    
Events      
Averages and records for this station are not official NWS values.
T = Trace of Precipitation, MM = Missing Value Source: NWS Daily Summary

Daily Weather History Graph

Daily Weather History Graph

Search for Another Location

Airport or City:

Astronomy

Jan. 24, 2013 Rise Set
Actual Time 7:05 AM MST 5:20 PM MST
Civil Twilight 6:38 AM MST 5:47 PM MST
Nautical Twilight 6:07 AM MST 6:18 PM MST
Astronomical Twilight 5:37 AM MST 6:48 PM MST
Moon 3:25 PM MST (1/24) 5:03 AM MST (1/24)
Length of Visible Light 11h 09m
Length of Day
10h 14m
Waxing Gibbous, 95% of the Moon is Illuminated
Jan 24
Waxing Gibbous
Jan 26
Full
Feb 3
Last Quarter
Feb 10
New
Feb 17
First Quarter

Hourly Weather History & Observations

Time (MST) Temp. Windchill Dew Point Humidity Pressure Visibility Wind Dir Wind Speed Gust Speed Precip Events Conditions
12:53 AM 44.1 °F 41.5 °F -11.0 °F 10% 30.02 in 10.0 mi West 4.6 mph - N/A   Clear
1:53 AM 39.0 °F 34.8 °F -7.1 °F 14% 30.03 in 10.0 mi SW 5.8 mph - N/A   Clear
2:53 AM 46.9 °F - -14.1 °F 7% 30.00 in 10.0 mi WNW 8.1 mph - N/A   Clear
3:53 AM 46.9 °F - -14.1 °F 7% 29.98 in 10.0 mi North 8.1 mph - N/A   Clear
4:53 AM 42.1 °F 40.2 °F -9.9 °F 11% 30.04 in 10.0 mi NW 3.5 mph - N/A   Clear
5:53 AM 44.1 °F 37.7 °F -9.0 °F 11% 30.04 in 10.0 mi West 12.7 mph - N/A   Clear
6:53 AM 37.9 °F 33.5 °F -8.0 °F 14% 30.11 in 10.0 mi East 5.8 mph - N/A   Clear
7:53 AM 39.0 °F 34.0 °F -6.0 °F 15% 30.10 in 10.0 mi SE 6.9 mph - N/A   Clear
8:53 AM 50.0 °F - -0.9 °F 12% 30.08 in 10.0 mi South 6.9 mph - N/A   Clear
9:53 AM 54.0 °F - 1.0 °F 12% 30.05 in 10.0 mi NNE 6.9 mph - N/A   Clear
10:53 AM 59.0 °F - -5.1 °F 7% 30.02 in 10.0 mi East 5.8 mph - N/A   Clear
11:53 AM 61.0 °F - -0.9 °F 8% 29.98 in 10.0 mi SSE 4.6 mph - N/A   Clear
12:53 PM 62.1 °F - -0.9 °F 8% 29.95 in 10.0 mi WSW 4.6 mph - N/A   Clear
1:53 PM 61.0 °F - 10.0 °F 13% 29.94 in 10.0 mi NW 19.6 mph - N/A   Clear
2:05 PM 60.8 °F - 12.2 °F 15% 30.13 in 10.0 mi NW 17.3 mph 25.3 mph N/A   Clear
2:53 PM 62.1 °F - 15.1 °F 16% 29.90 in 10.0 mi NW 10.4 mph - N/A   Clear
3:53 PM 62.1 °F - 17.1 °F 18% 29.89 in 10.0 mi NW 11.5 mph - N/A   Clear
4:53 PM 55.9 °F - 17.1 °F 22% 29.96 in 10.0 mi NW 6.9 mph - N/A   Clear
5:53 PM 48.9 °F - 19.9 °F 32% 30.00 in 10.0 mi NW 10.4 mph - N/A   Clear
6:53 PM 50.0 °F - 21.9 °F 33% 30.01 in 10.0 mi West 17.3 mph - N/A   Clear
7:53 PM 45.0 °F 38.2 °F 21.9 °F 40% 30.03 in 10.0 mi WNW 15.0 mph - N/A   Clear
8:53 PM 43.0 °F 39.5 °F 19.9 °F 40% 29.97 in 10.0 mi East 5.8 mph - N/A   Clear
9:53 PM 42.1 °F 37.1 °F 19.9 °F 41% 30.01 in 10.0 mi East 8.1 mph - N/A   Clear
10:53 PM 39.0 °F 32.3 °F 21.0 °F 49% 30.00 in 10.0 mi NNE 10.4 mph - N/A   Clear
11:53 PM 39.9 °F 35.1 °F 21.9 °F 49% 30.00 in 10.0 mi NNE 6.9 mph - N/A   Clear